owner,sensor,date,latitude,longitude,sea_surface_height_above_sea_level,qcFlag 
LUMCON,ioos:station:LUMCON:105:1,2009-03-02T21:00:00Z,29.1874,-90.6654,0.519,1111122 
LUMCON,ioos:station:LUMCON:105:1,2009-03-02T22:00:00Z,29.1874,-90.6654,0.452,1111122 
LUMCON,ioos:station:LUMCON:105:1,2009-03-02T23:00:00Z,29.1874,-90.6654,0.347,1111122 
LUMCON,ioos:station:LUMCON:105:1,2009-03-03T00:00:00Z,29.1874,-90.6654,0.257,1111122 
LUMCON,ioos:station:LUMCON:105:1,2009-03-03T01:00:00Z,29.1874,-90.6654,0.181,1111122 
LUMCON,ioos:station:LUMCON:105:1,2009-03-03T02:00:00Z,29.1874,-90.6654,0.12,1111122 
LUMCON,ioos:station:LUMCON:105:1,2009-03-03T03:00:00Z,29.1874,-90.6654,0.067,1111122 
LUMCON,ioos:station:LUMCON:105:1,2009-03-03T04:00:00Z,29.1874,-90.6654,0.013,1111122 
LUMCON,ioos:station:LUMCON:105:1,2009-03-03T06:00:00Z,29.1874,-90.6654,0.001,1111122 
LUMCON,ioos:station:LUMCON:105:1,2009-03-03T07:00:00Z,29.1874,-90.6654,0.002,1111122 
LUMCON,ioos:station:LUMCON:105:1,2009-03-03T12:00:00Z,29.1874,-90.6654,0.001,1111122 
LUMCON,ioos:station:LUMCON:105:1,2009-03-03T13:00:00Z,29.1874,-90.6654,0.015,1111122 
LUMCON,ioos:station:LUMCON:105:1,2009-03-03T14:00:00Z,29.1874,-90.6654,0.056,1111122 
LUMCON,ioos:station:LUMCON:105:1,2009-03-03T15:00:00Z,29.1874,-90.6654,0.113,1111122 
LUMCON,ioos:station:LUMCON:105:1,2009-03-03T16:00:00Z,29.1874,-90.6654,0.17,1111122 
LUMCON,ioos:station:LUMCON:105:1,2009-03-03T17:00:00Z,29.1874,-90.6654,0.228,1111122 
LUMCON,ioos:station:LUMCON:105:1,2009-03-03T18:00:00Z,29.1874,-90.6654,0.28,1111122 
LUMCON,ioos:station:LUMCON:105:1,2009-03-03T19:00:00Z,29.1874,-90.6654,0.318,1111122 
LUMCON,ioos:station:LUMCON:105:1,2009-03-03T20:00:00Z,29.1874,-90.6654,0.35,1111122 
LUMCON,ioos:station:LUMCON:105:1,2009-03-03T21:00:00Z,29.1874,-90.6654,0.372,1111122 
LUMCON,ioos:station:LUMCON:105:1,2009-03-03T22:00:00Z,29.1874,-90.6654,0.37,1111122 
LUMCON,ioos:station:LUMCON:105:1,2009-03-03T23:00:00Z,29.1874,-90.6654,0.358,1111122 
LUMCON,ioos:station:LUMCON:105:1,2009-03-04T00:00:00Z,29.1874,-90.6654,0.322,1111122 
LUMCON,ioos:station:LUMCON:105:1,2009-03-04T01:00:00Z,29.1874,-90.6654,0.272,1111122 
LUMCON,ioos:station:LUMCON:105:1,2009-03-04T02:00:00Z,29.1874,-90.6654,0.227,1111122 
LUMCON,ioos:station:LUMCON:105:1,2009-03-04T03:00:00Z,29.1874,-90.6654,0.187,1111122 
LUMCON,ioos:station:LUMCON:105:1,2009-03-04T04:00:00Z,29.1874,-90.6654,0.129,1111122 
LUMCON,ioos:station:LUMCON:105:1,2009-03-04T05:00:00Z,29.1874,-90.6654,0.076,1111122 
LUMCON,ioos:station:LUMCON:105:1,2009-03-04T06:00:00Z,29.1874,-90.6654,0.026,1111122 
LUMCON,ioos:station:LUMCON:105:1,2009-03-04T07:00:00Z,29.1874,-90.6654,-0.003,1111122 
LUMCON,ioos:station:LUMCON:105:1,2009-03-04T08:00:00Z,29.1874,-90.6654,-0.004,1111122 
LUMCON,ioos:station:LUMCON:105:1,2009-03-04T09:00:00Z,29.1874,-90.6654,-0.002,1111122 
LUMCON,ioos:station:LUMCON:105:1,2009-03-04T10:00:00Z,29.1874,-90.6654,0.001,1111122 
LUMCON,ioos:station:LUMCON:105:1,2009-03-04T11:00:00Z,29.1874,-90.6654,0.008,1111122 
LUMCON,ioos:station:LUMCON:105:1,2009-03-04T12:00:00Z,29.1874,-90.6654,0.044,1111122 
LUMCON,ioos:station:LUMCON:105:1,2009-03-04T13:00:00Z,29.1874,-90.6654,0.089,1111122 
LUMCON,ioos:station:LUMCON:105:1,2009-03-04T14:00:00Z,29.1874,-90.6654,0.154,1111122 
LUMCON,ioos:station:LUMCON:105:1,2009-03-04T15:00:00Z,29.1874,-90.6654,0.222,1111122 
LUMCON,ioos:station:LUMCON:105:1,2009-03-04T16:00:00Z,29.1874,-90.6654,0.282,1111122 
LUMCON,ioos:station:LUMCON:105:1,2009-03-04T17:00:00Z,29.1874,-90.6654,0.339,1111122 
LUMCON,ioos:station:LUMCON:105:1,2009-03-04T18:00:00Z,29.1874,-90.6654,0.399,1111122 
LUMCON,ioos:station:LUMCON:105:1,2009-03-04T19:00:00Z,29.1874,-90.6654,0.453,1111122 
LUMCON,ioos:station:LUMCON:105:1,2009-03-04T20:00:00Z,29.1874,-90.6654,0.497,1111122 
LUMCON,ioos:station:LUMCON:105:1,2009-03-04T21:00:00Z,29.1874,-90.6654,0.52,1111122 
LUMCON,ioos:station:LUMCON:105:1,2009-03-04T22:00:00Z,29.1874,-90.6654,0.526,1111122 
LUMCON,ioos:station:LUMCON:105:1,2009-03-04T23:00:00Z,29.1874,-90.6654,0.518,1111122 
LUMCON,ioos:station:LUMCON:105:1,2009-03-05T00:00:00Z,29.1874,-90.6654,0.508,1111122 
LUMCON,ioos:station:LUMCON:105:1,2009-03-05T01:00:00Z,29.1874,-90.6654,0.475,1111122 
LUMCON,ioos:station:LUMCON:105:1,2009-03-05T02:00:00Z,29.1874,-90.6654,0.436,1111122 
LUMCON,ioos:station:LUMCON:105:1,2009-03-05T03:00:00Z,29.1874,-90.6654,0.383,1111122 
LUMCON,ioos:station:LUMCON:105:1,2009-03-05T04:00:00Z,29.1874,-90.6654,0.339,1111122 
LUMCON,ioos:station:LUMCON:105:1,2009-03-05T05:00:00Z,29.1874,-90.6654,0.278,1111122 
LUMCON,ioos:station:LUMCON:105:1,2009-03-05T06:00:00Z,29.1874,-90.6654,0.228,1111122 
LUMCON,ioos:station:LUMCON:105:1,2009-03-05T07:00:00Z,29.1874,-90.6654,0.184,1111122 
LUMCON,ioos:station:LUMCON:105:1,2009-03-05T08:00:00Z,29.1874,-90.6654,0.12,1111122 
LUMCON,ioos:station:LUMCON:105:1,2009-03-05T09:00:00Z,29.1874,-90.6654,0.071,1111122 
LUMCON,ioos:station:LUMCON:105:1,2009-03-05T10:00:00Z,29.1874,-90.6654,0.034,1111122 
LUMCON,ioos:station:LUMCON:105:1,2009-03-05T11:00:00Z,29.1874,-90.6654,0.035,1111122 
LUMCON,ioos:station:LUMCON:105:1,2009-03-05T12:00:00Z,29.1874,-90.6654,0.058,1111122 
LUMCON,ioos:station:LUMCON:105:1,2009-03-05T13:00:00Z,29.1874,-90.6654,0.102,1111122 
LUMCON,ioos:station:LUMCON:105:1,2009-03-05T14:00:00Z,29.1874,-90.6654,0.157,1111122 
LUMCON,ioos:station:LUMCON:105:1,2009-03-05T15:00:00Z,29.1874,-90.6654,0.21,1111122 
LUMCON,ioos:station:LUMCON:105:1,2009-03-05T16:00:00Z,29.1874,-90.6654,0.277,1111122 
LUMCON,ioos:station:LUMCON:105:1,2009-03-05T17:00:00Z,29.1874,-90.6654,0.343,1111122 
LUMCON,ioos:station:LUMCON:105:1,2009-03-05T18:00:00Z,29.1874,-90.6654,0.397,1111122 
LUMCON,ioos:station:LUMCON:105:1,2009-03-05T19:00:00Z,29.1874,-90.6654,0.458,1111122 
LUMCON,ioos:station:LUMCON:105:1,2009-03-05T20:00:00Z,29.1874,-90.6654,0.512,1111122 
LUMCON,ioos:station:LUMCON:105:1,2009-03-05T21:00:00Z,29.1874,-90.6654,0.539,1111122 
LUMCON,ioos:station:LUMCON:105:1,2009-03-05T22:00:00Z,29.1874,-90.6654,0.549,1111122 
LUMCON,ioos:station:LUMCON:105:1,2009-03-05T23:00:00Z,29.1874,-90.6654,0.566,1111122 
LUMCON,ioos:station:LUMCON:105:1,2009-03-06T00:00:00Z,29.1874,-90.6654,0.561,1111122 
LUMCON,ioos:station:LUMCON:105:1,2009-03-06T01:00:00Z,29.1874,-90.6654,0.547,1111122 
LUMCON,ioos:station:LUMCON:105:1,2009-03-06T02:00:00Z,29.1874,-90.6654,0.518,1111122 
LUMCON,ioos:station:LUMCON:105:1,2009-03-06T03:00:00Z,29.1874,-90.6654,0.472,1111122 
LUMCON,ioos:station:LUMCON:105:1,2009-03-06T04:00:00Z,29.1874,-90.6654,0.417,1111122 
LUMCON,ioos:station:LUMCON:105:1,2009-03-06T05:00:00Z,29.1874,-90.6654,0.361,1111122 
LUMCON,ioos:station:LUMCON:105:1,2009-03-06T06:00:00Z,29.1874,-90.6654,0.286,1111122 
LUMCON,ioos:station:LUMCON:105:1,2009-03-06T07:00:00Z,29.1874,-90.6654,0.199,1111122 
LUMCON,ioos:station:LUMCON:105:1,2009-03-06T08:00:00Z,29.1874,-90.6654,0.116,1111122 
LUMCON,ioos:station:LUMCON:105:1,2009-03-06T09:00:00Z,29.1874,-90.6654,0.044,1111122 
LUMCON,ioos:station:LUMCON:105:1,2009-03-06T10:00:00Z,29.1874,-90.6654,-0.007,1111122 
LUMCON,ioos:station:LUMCON:105:1,2009-03-06T11:00:00Z,29.1874,-90.6654,-0.015,1111122 
LUMCON,ioos:station:LUMCON:105:1,2009-03-06T12:00:00Z,29.1874,-90.6654,-0.011,1111122 
LUMCON,ioos:station:LUMCON:105:1,2009-03-06T13:00:00Z,29.1874,-90.6654,-0.01,1111122 
LUMCON,ioos:station:LUMCON:105:1,2009-03-06T14:00:00Z,29.1874,-90.6654,0.019,1111122 
LUMCON,ioos:station:LUMCON:105:1,2009-03-06T15:00:00Z,29.1874,-90.6654,0.072,1111122 
LUMCON,ioos:station:LUMCON:105:1,2009-03-06T16:00:00Z,29.1874,-90.6654,0.139,1111122 
LUMCON,ioos:station:LUMCON:105:1,2009-03-06T17:00:00Z,29.1874,-90.6654,0.211,1111122 
LUMCON,ioos:station:LUMCON:105:1,2009-03-06T18:00:00Z,29.1874,-90.6654,0.272,1111122 
LUMCON,ioos:station:LUMCON:105:1,2009-03-06T19:00:00Z,29.1874,-90.6654,0.325,1111122 
LUMCON,ioos:station:LUMCON:105:1,2009-03-06T20:00:00Z,29.1874,-90.6654,0.368,1111122 
LUMCON,ioos:station:LUMCON:105:1,2009-03-06T21:00:00Z,29.1874,-90.6654,0.402,1111122 
LUMCON,ioos:station:LUMCON:105:1,2009-03-06T22:00:00Z,29.1874,-90.6654,0.436,1111122 
LUMCON,ioos:station:LUMCON:105:1,2009-03-06T23:00:00Z,29.1874,-90.6654,0.466,1111122 
LUMCON,ioos:station:LUMCON:105:1,2009-03-07T00:00:00Z,29.1874,-90.6654,0.475,1111122 
LUMCON,ioos:station:LUMCON:105:1,2009-03-07T01:00:00Z,29.1874,-90.6654,0.481,1111122 
LUMCON,ioos:station:LUMCON:105:1,2009-03-07T02:00:00Z,29.1874,-90.6654,0.481,1111122 
LUMCON,ioos:station:LUMCON:105:1,2009-03-07T03:00:00Z,29.1874,-90.6654,0.469,1111122 
LUMCON,ioos:station:LUMCON:105:1,2009-03-07T04:00:00Z,29.1874,-90.6654,0.428,1111122 
LUMCON,ioos:station:LUMCON:105:1,2009-03-07T05:00:00Z,29.1874,-90.6654,0.378,1111122 
LUMCON,ioos:station:LUMCON:105:1,2009-03-07T06:00:00Z,29.1874,-90.6654,0.325,1111122 
LUMCON,ioos:station:LUMCON:105:1,2009-03-07T07:00:00Z,29.1874,-90.6654,0.263,1111122 
LUMCON,ioos:station:LUMCON:105:1,2009-03-07T08:00:00Z,29.1874,-90.6654,0.197,1111122 
LUMCON,ioos:station:LUMCON:105:1,2009-03-07T09:00:00Z,29.1874,-90.6654,0.142,1111122 
LUMCON,ioos:station:LUMCON:105:1,2009-03-07T10:00:00Z,29.1874,-90.6654,0.084,1111122 
LUMCON,ioos:station:LUMCON:105:1,2009-03-07T11:00:00Z,29.1874,-90.6654,0.046,1111122 
LUMCON,ioos:station:LUMCON:105:1,2009-03-07T12:00:00Z,29.1874,-90.6654,0.027,1111122 
LUMCON,ioos:station:LUMCON:105:1,2009-03-07T13:00:00Z,29.1874,-90.6654,0.043,1111122 
LUMCON,ioos:station:LUMCON:105:1,2009-03-07T14:00:00Z,29.1874,-90.6654,0.09,1111122 
LUMCON,ioos:station:LUMCON:105:1,2009-03-07T15:00:00Z,29.1874,-90.6654,0.15,1111122 
LUMCON,ioos:station:LUMCON:105:1,2009-03-07T16:00:00Z,29.1874,-90.6654,0.219,1111122 
LUMCON,ioos:station:LUMCON:105:1,2009-03-07T17:00:00Z,29.1874,-90.6654,0.295,1111122 
LUMCON,ioos:station:LUMCON:105:1,2009-03-07T18:00:00Z,29.1874,-90.6654,0.352,1111122 
LUMCON,ioos:station:LUMCON:105:1,2009-03-07T19:00:00Z,29.1874,-90.6654,0.394,1111122 
LUMCON,ioos:station:LUMCON:105:1,2009-03-07T21:00:00Z,29.1874,-90.6654,0.492,1111122 
LUMCON,ioos:station:LUMCON:105:1,2009-03-07T22:00:00Z,29.1874,-90.6654,0.523,1111122 
LUMCON,ioos:station:LUMCON:105:1,2009-03-07T23:00:00Z,29.1874,-90.6654,0.554,1111122 
LUMCON,ioos:station:LUMCON:105:1,2009-03-08T00:00:00Z,29.1874,-90.6654,0.575,1111122 
LUMCON,ioos:station:LUMCON:105:1,2009-03-08T01:00:00Z,29.1874,-90.6654,0.581,1111122 
LUMCON,ioos:station:LUMCON:105:1,2009-03-08T02:00:00Z,29.1874,-90.6654,0.605,1111122 
LUMCON,ioos:station:LUMCON:105:1,2009-03-08T03:00:00Z,29.1874,-90.6654,0.603,1111122 
LUMCON,ioos:station:LUMCON:105:1,2009-03-08T04:00:00Z,29.1874,-90.6654,0.593,1111122 
LUMCON,ioos:station:LUMCON:105:1,2009-03-08T05:00:00Z,29.1874,-90.6654,0.56,1111122 
LUMCON,ioos:station:LUMCON:105:1,2009-03-08T06:00:00Z,29.1874,-90.6654,0.5,1111122 
LUMCON,ioos:station:LUMCON:105:1,2009-03-08T07:00:00Z,29.1874,-90.6654,0.433,1111122 
LUMCON,ioos:station:LUMCON:105:1,2009-03-08T09:00:00Z,29.1874,-90.6654,0.302,1111122 
LUMCON,ioos:station:LUMCON:105:1,2009-03-08T10:00:00Z,29.1874,-90.6654,0.238,1111122 
LUMCON,ioos:station:LUMCON:105:1,2009-03-08T11:00:00Z,29.1874,-90.6654,0.201,1111122 
LUMCON,ioos:station:LUMCON:105:1,2009-03-08T12:00:00Z,29.1874,-90.6654,0.165,1111122 
LUMCON,ioos:station:LUMCON:105:1,2009-03-08T13:00:00Z,29.1874,-90.6654,0.134,1111122 
LUMCON,ioos:station:LUMCON:105:1,2009-03-08T14:00:00Z,29.1874,-90.6654,0.153,1111122 
LUMCON,ioos:station:LUMCON:105:1,2009-03-08T15:00:00Z,29.1874,-90.6654,0.175,1111122 
LUMCON,ioos:station:LUMCON:105:1,2009-03-08T16:00:00Z,29.1874,-90.6654,0.192,1111122 
LUMCON,ioos:station:LUMCON:105:1,2009-03-08T17:00:00Z,29.1874,-90.6654,0.243,1111122 
LUMCON,ioos:station:LUMCON:105:1,2009-03-08T18:00:00Z,29.1874,-90.6654,0.309,1111122 
LUMCON,ioos:station:LUMCON:105:1,2009-03-08T19:00:00Z,29.1874,-90.6654,0.357,1111122 
LUMCON,ioos:station:LUMCON:105:1,2009-03-08T20:00:00Z,29.1874,-90.6654,0.395,1111122 
LUMCON,ioos:station:LUMCON:105:1,2009-03-08T21:00:00Z,29.1874,-90.6654,0.409,1111122 
LUMCON,ioos:station:LUMCON:105:1,2009-03-08T22:00:00Z,29.1874,-90.6654,0.426,1111122 
LUMCON,ioos:station:LUMCON:105:1,2009-03-08T23:00:00Z,29.1874,-90.6654,0.463,1111122 
LUMCON,ioos:station:LUMCON:105:1,2009-03-09T00:00:00Z,29.1874,-90.6654,0.483,1111122 
LUMCON,ioos:station:LUMCON:105:1,2009-03-09T01:00:00Z,29.1874,-90.6654,0.491,1111122 
LUMCON,ioos:station:LUMCON:105:1,2009-03-09T02:00:00Z,29.1874,-90.6654,0.513,1111122 
LUMCON,ioos:station:LUMCON:105:1,2009-03-09T03:00:00Z,29.1874,-90.6654,0.527,1111122 
LUMCON,ioos:station:LUMCON:105:1,2009-03-09T04:00:00Z,29.1874,-90.6654,0.516,1111122 
LUMCON,ioos:station:LUMCON:105:1,2009-03-09T05:00:00Z,29.1874,-90.6654,0.517,1111122 
LUMCON,ioos:station:LUMCON:105:1,2009-03-09T06:00:00Z,29.1874,-90.6654,0.483,1111122 
LUMCON,ioos:station:LUMCON:105:1,2009-03-09T07:00:00Z,29.1874,-90.6654,0.421,1111122 
LUMCON,ioos:station:LUMCON:105:1,2009-03-09T08:00:00Z,29.1874,-90.6654,0.365,1111122 
LUMCON,ioos:station:LUMCON:105:1,2009-03-09T09:00:00Z,29.1874,-90.6654,0.302,1111122 
LUMCON,ioos:station:LUMCON:105:1,2009-03-09T10:00:00Z,29.1874,-90.6654,0.24,1111122 
LUMCON,ioos:station:LUMCON:105:1,2009-03-09T11:00:00Z,29.1874,-90.6654,0.204,1111122 
LUMCON,ioos:station:LUMCON:105:1,2009-03-09T12:00:00Z,29.1874,-90.6654,0.181,1111122 
LUMCON,ioos:station:LUMCON:105:1,2009-03-09T13:00:00Z,29.1874,-90.6654,0.166,1111122 
LUMCON,ioos:station:LUMCON:105:1,2009-03-09T14:00:00Z,29.1874,-90.6654,0.165,1111122 
LUMCON,ioos:station:LUMCON:105:1,2009-03-09T15:00:00Z,29.1874,-90.6654,0.187,1111122 
LUMCON,ioos:station:LUMCON:105:1,2009-03-09T16:00:00Z,29.1874,-90.6654,0.227,1111122 
LUMCON,ioos:station:LUMCON:105:1,2009-03-09T18:00:00Z,29.1874,-90.6654,0.336,1111122 
LUMCON,ioos:station:LUMCON:105:1,2009-03-09T19:00:00Z,29.1874,-90.6654,0.377,1111122 
LUMCON,ioos:station:LUMCON:105:1,2009-03-09T20:00:00Z,29.1874,-90.6654,0.411,1111122 
LUMCON,ioos:station:LUMCON:105:1,2009-03-09T21:00:00Z,29.1874,-90.6654,0.429,1111122 
LUMCON,ioos:station:LUMCON:105:1,2009-03-09T22:00:00Z,29.1874,-90.6654,0.428,1111122 
LUMCON,ioos:station:LUMCON:105:1,2009-03-09T23:00:00Z,29.1874,-90.6654,0.43,1111122 
LUMCON,ioos:station:LUMCON:105:1,2009-03-10T00:00:00Z,29.1874,-90.6654,0.455,1111122 
LUMCON,ioos:station:LUMCON:105:1,2009-03-10T01:00:00Z,29.1874,-90.6654,0.477,1111122 
LUMCON,ioos:station:LUMCON:105:1,2009-03-10T02:00:00Z,29.1874,-90.6654,0.486,1111122 
LUMCON,ioos:station:LUMCON:105:1,2009-03-10T03:00:00Z,29.1874,-90.6654,0.502,1111122 
LUMCON,ioos:station:LUMCON:105:1,2009-03-10T04:00:00Z,29.1874,-90.6654,0.515,1111122 
LUMCON,ioos:station:LUMCON:105:1,2009-03-10T05:00:00Z,29.1874,-90.6654,0.52,1111122 
LUMCON,ioos:station:LUMCON:105:1,2009-03-10T06:00:00Z,29.1874,-90.6654,0.519,1111122 
LUMCON,ioos:station:LUMCON:105:1,2009-03-10T07:00:00Z,29.1874,-90.6654,0.504,1111122 
LUMCON,ioos:station:LUMCON:105:1,2009-03-10T08:00:00Z,29.1874,-90.6654,0.465,1111122 
LUMCON,ioos:station:LUMCON:105:1,2009-03-10T09:00:00Z,29.1874,-90.6654,0.423,1111122 
LUMCON,ioos:station:LUMCON:105:1,2009-03-10T10:00:00Z,29.1874,-90.6654,0.379,1111122 
LUMCON,ioos:station:LUMCON:105:1,2009-03-10T11:00:00Z,29.1874,-90.6654,0.322,1111122 
LUMCON,ioos:station:LUMCON:105:1,2009-03-10T12:00:00Z,29.1874,-90.6654,0.288,1111122 
LUMCON,ioos:station:LUMCON:105:1,2009-03-10T13:00:00Z,29.1874,-90.6654,0.278,1111122 
LUMCON,ioos:station:LUMCON:105:1,2009-03-10T14:00:00Z,29.1874,-90.6654,0.285,1111122 
LUMCON,ioos:station:LUMCON:105:1,2009-03-10T15:00:00Z,29.1874,-90.6654,0.293,1111122 
LUMCON,ioos:station:LUMCON:105:1,2009-03-10T16:00:00Z,29.1874,-90.6654,0.319,1111122 
LUMCON,ioos:station:LUMCON:105:1,2009-03-10T17:00:00Z,29.1874,-90.6654,0.33,1111122 
LUMCON,ioos:station:LUMCON:105:1,2009-03-10T18:00:00Z,29.1874,-90.6654,0.37,1111122 
LUMCON,ioos:station:LUMCON:105:1,2009-03-10T19:00:00Z,29.1874,-90.6654,0.399,1111122 
LUMCON,ioos:station:LUMCON:105:1,2009-03-10T20:00:00Z,29.1874,-90.6654,0.41,1111122 
LUMCON,ioos:station:LUMCON:105:1,2009-03-10T21:00:00Z,29.1874,-90.6654,0.413,1111122 
LUMCON,ioos:station:LUMCON:105:1,2009-03-10T22:00:00Z,29.1874,-90.6654,0.406,1111122 
LUMCON,ioos:station:LUMCON:105:1,2009-03-10T23:00:00Z,29.1874,-90.6654,0.381,1111122 
LUMCON,ioos:station:LUMCON:105:1,2009-03-11T00:00:00Z,29.1874,-90.6654,0.389,1111122 
LUMCON,ioos:station:LUMCON:105:1,2009-03-11T01:00:00Z,29.1874,-90.6654,0.399,1111122 
LUMCON,ioos:station:LUMCON:105:1,2009-03-11T02:00:00Z,29.1874,-90.6654,0.413,1111122 
LUMCON,ioos:station:LUMCON:105:1,2009-03-11T03:00:00Z,29.1874,-90.6654,0.428,1111122 
LUMCON,ioos:station:LUMCON:105:1,2009-03-11T04:00:00Z,29.1874,-90.6654,0.445,1111122 
LUMCON,ioos:station:LUMCON:105:1,2009-03-11T05:00:00Z,29.1874,-90.6654,0.469,1111122 
LUMCON,ioos:station:LUMCON:105:1,2009-03-11T06:00:00Z,29.1874,-90.6654,0.497,1111122 
LUMCON,ioos:station:LUMCON:105:1,2009-03-11T07:00:00Z,29.1874,-90.6654,0.508,1111122 
LUMCON,ioos:station:LUMCON:105:1,2009-03-11T08:00:00Z,29.1874,-90.6654,0.498,1111122 
LUMCON,ioos:station:LUMCON:105:1,2009-03-11T09:00:00Z,29.1874,-90.6654,0.493,1111122 
LUMCON,ioos:station:LUMCON:105:1,2009-03-11T10:00:00Z,29.1874,-90.6654,0.464,1111122 
LUMCON,ioos:station:LUMCON:105:1,2009-03-11T11:00:00Z,29.1874,-90.6654,0.418,1111122 
LUMCON,ioos:station:LUMCON:105:1,2009-03-11T12:00:00Z,29.1874,-90.6654,0.374,1111122 
LUMCON,ioos:station:LUMCON:105:1,2009-03-11T13:00:00Z,29.1874,-90.6654,0.367,1111122 
LUMCON,ioos:station:LUMCON:105:1,2009-03-11T14:00:00Z,29.1874,-90.6654,0.378,1111122 
LUMCON,ioos:station:LUMCON:105:1,2009-03-11T15:00:00Z,29.1874,-90.6654,0.362,1111122 
LUMCON,ioos:station:LUMCON:105:1,2009-03-11T16:00:00Z,29.1874,-90.6654,0.346,1111122 
LUMCON,ioos:station:LUMCON:105:1,2009-03-11T17:00:00Z,29.1874,-90.6654,0.346,1111122 
LUMCON,ioos:station:LUMCON:105:1,2009-03-11T18:00:00Z,29.1874,-90.6654,0.352,1111122 
LUMCON,ioos:station:LUMCON:105:1,2009-03-11T19:00:00Z,29.1874,-90.6654,0.351,1111122 
LUMCON,ioos:station:LUMCON:105:1,2009-03-11T20:00:00Z,29.1874,-90.6654,0.358,1111122 
LUMCON,ioos:station:LUMCON:105:1,2009-03-11T21:00:00Z,29.1874,-90.6654,0.352,1111122 
LUMCON,ioos:station:LUMCON:105:1,2009-03-11T22:00:00Z,29.1874,-90.6654,0.325,1111122 
LUMCON,ioos:station:LUMCON:105:1,2009-03-11T23:00:00Z,29.1874,-90.6654,0.303,1111122 
LUMCON,ioos:station:LUMCON:105:1,2009-03-12T00:00:00Z,29.1874,-90.6654,0.279,1111122 
LUMCON,ioos:station:LUMCON:105:1,2009-03-12T01:00:00Z,29.1874,-90.6654,0.259,1111122 
LUMCON,ioos:station:LUMCON:105:1,2009-03-12T02:00:00Z,29.1874,-90.6654,0.27,1111122 
LUMCON,ioos:station:LUMCON:105:1,2009-03-12T03:00:00Z,29.1874,-90.6654,0.271,1111122 
LUMCON,ioos:station:LUMCON:105:1,2009-03-12T04:00:00Z,29.1874,-90.6654,0.273,1111122 
LUMCON,ioos:station:LUMCON:105:1,2009-03-12T05:00:00Z,29.1874,-90.6654,0.286,1111122 
LUMCON,ioos:station:LUMCON:105:1,2009-03-12T06:00:00Z,29.1874,-90.6654,0.314,1111122 
LUMCON,ioos:station:LUMCON:105:1,2009-03-12T07:00:00Z,29.1874,-90.6654,0.344,1111122 
LUMCON,ioos:station:LUMCON:105:1,2009-03-12T08:00:00Z,29.1874,-90.6654,0.365,1111122 
LUMCON,ioos:station:LUMCON:105:1,2009-03-12T09:00:00Z,29.1874,-90.6654,0.372,1111122 
LUMCON,ioos:station:LUMCON:105:1,2009-03-12T10:00:00Z,29.1874,-90.6654,0.363,1111122 
LUMCON,ioos:station:LUMCON:105:1,2009-03-12T11:00:00Z,29.1874,-90.6654,0.356,1111122 
LUMCON,ioos:station:LUMCON:105:1,2009-03-12T12:00:00Z,29.1874,-90.6654,0.352,1111122 
LUMCON,ioos:station:LUMCON:105:1,2009-03-12T13:00:00Z,29.1874,-90.6654,0.354,1111122 
LUMCON,ioos:station:LUMCON:105:1,2009-03-12T14:00:00Z,29.1874,-90.6654,0.368,1111122 
LUMCON,ioos:station:LUMCON:105:1,2009-03-12T15:00:00Z,29.1874,-90.6654,0.368,1111122 
LUMCON,ioos:station:LUMCON:105:1,2009-03-12T16:00:00Z,29.1874,-90.6654,0.356,1111122 
LUMCON,ioos:station:LUMCON:105:1,2009-03-12T17:00:00Z,29.1874,-90.6654,0.36,1111122 
LUMCON,ioos:station:LUMCON:105:1,2009-03-12T18:00:00Z,29.1874,-90.6654,0.392,1111122 
LUMCON,ioos:station:LUMCON:105:1,2009-03-12T19:00:00Z,29.1874,-90.6654,0.42,1111122 
LUMCON,ioos:station:LUMCON:105:1,2009-03-12T20:00:00Z,29.1874,-90.6654,0.407,1111122 
LUMCON,ioos:station:LUMCON:105:1,2009-03-13T20:00:00Z,29.1874,-90.6654,0.504,1111122 
LUMCON,ioos:station:LUMCON:105:1,2009-03-13T22:00:00Z,29.1874,-90.6654,0.465,1111122 
LUMCON,ioos:station:LUMCON:105:1,2009-03-13T23:00:00Z,29.1874,-90.6654,0.432,1111122 
LUMCON,ioos:station:LUMCON:105:1,2009-03-14T00:00:00Z,29.1874,-90.6654,0.394,1111122 
LUMCON,ioos:station:LUMCON:105:1,2009-03-14T01:00:00Z,29.1874,-90.6654,0.347,1111122 
LUMCON,ioos:station:LUMCON:105:1,2009-03-14T02:00:00Z,29.1874,-90.6654,0.307,1111122 
LUMCON,ioos:station:LUMCON:105:1,2009-03-14T03:00:00Z,29.1874,-90.6654,0.264,1111122 
LUMCON,ioos:station:LUMCON:105:1,2009-03-14T04:00:00Z,29.1874,-90.6654,0.242,1111122 
LUMCON,ioos:station:LUMCON:105:1,2009-03-14T05:00:00Z,29.1874,-90.6654,0.246,1111122 
LUMCON,ioos:station:LUMCON:105:1,2009-03-14T06:00:00Z,29.1874,-90.6654,0.263,1111122 
LUMCON,ioos:station:LUMCON:105:1,2009-03-14T07:00:00Z,29.1874,-90.6654,0.273,1111122 
LUMCON,ioos:station:LUMCON:105:1,2009-03-14T08:00:00Z,29.1874,-90.6654,0.308,1111122 
LUMCON,ioos:station:LUMCON:105:1,2009-03-14T09:00:00Z,29.1874,-90.6654,0.33,1111122 
LUMCON,ioos:station:LUMCON:105:1,2009-03-14T10:00:00Z,29.1874,-90.6654,0.36,1111122 
LUMCON,ioos:station:LUMCON:105:1,2009-03-14T11:00:00Z,29.1874,-90.6654,0.411,1111122 
LUMCON,ioos:station:LUMCON:105:1,2009-03-14T12:00:00Z,29.1874,-90.6654,0.439,1111122 
LUMCON,ioos:station:LUMCON:105:1,2009-03-14T13:00:00Z,29.1874,-90.6654,0.477,1111122 
LUMCON,ioos:station:LUMCON:105:1,2009-03-14T14:00:00Z,29.1874,-90.6654,0.494,1111122 
LUMCON,ioos:station:LUMCON:105:1,2009-03-14T15:00:00Z,29.1874,-90.6654,0.523,1111122 
LUMCON,ioos:station:LUMCON:105:1,2009-03-14T16:00:00Z,29.1874,-90.6654,0.564,1111122 
LUMCON,ioos:station:LUMCON:105:1,2009-03-14T17:00:00Z,29.1874,-90.6654,0.576,1111122 
LUMCON,ioos:station:LUMCON:105:1,2009-03-14T18:00:00Z,29.1874,-90.6654,0.526,1111122 
LUMCON,ioos:station:LUMCON:105:1,2009-03-14T19:00:00Z,29.1874,-90.6654,0.531,1111122 
LUMCON,ioos:station:LUMCON:105:1,2009-03-14T20:00:00Z,29.1874,-90.6654,0.513,1111122 
LUMCON,ioos:station:LUMCON:105:1,2009-03-14T21:00:00Z,29.1874,-90.6654,0.451,1111122 
LUMCON,ioos:station:LUMCON:105:1,2009-03-14T22:00:00Z,29.1874,-90.6654,0.395,1111122 
LUMCON,ioos:station:LUMCON:105:1,2009-03-14T23:00:00Z,29.1874,-90.6654,0.384,1111122 
LUMCON,ioos:station:LUMCON:105:1,2009-03-15T00:00:00Z,29.1874,-90.6654,0.329,1111122 
LUMCON,ioos:station:LUMCON:105:1,2009-03-15T01:00:00Z,29.1874,-90.6654,0.245,1111122 
LUMCON,ioos:station:LUMCON:105:1,2009-03-15T02:00:00Z,29.1874,-90.6654,0.188,1111122 
LUMCON,ioos:station:LUMCON:105:1,2009-03-15T03:00:00Z,29.1874,-90.6654,0.132,1111122 
LUMCON,ioos:station:LUMCON:105:1,2009-03-15T04:00:00Z,29.1874,-90.6654,0.106,1111122 
LUMCON,ioos:station:LUMCON:105:1,2009-03-15T05:00:00Z,29.1874,-90.6654,0.092,1111122 
LUMCON,ioos:station:LUMCON:105:1,2009-03-15T06:00:00Z,29.1874,-90.6654,0.085,1111122 
LUMCON,ioos:station:LUMCON:105:1,2009-03-15T07:00:00Z,29.1874,-90.6654,0.075,1111122 
LUMCON,ioos:station:LUMCON:105:1,2009-03-15T08:00:00Z,29.1874,-90.6654,0.116,1111122 
LUMCON,ioos:station:LUMCON:105:1,2009-03-15T09:00:00Z,29.1874,-90.6654,0.194,1111122 
LUMCON,ioos:station:LUMCON:105:1,2009-03-15T10:00:00Z,29.1874,-90.6654,0.258,1111122 
LUMCON,ioos:station:LUMCON:105:1,2009-03-15T11:00:00Z,29.1874,-90.6654,0.292,1111122 
LUMCON,ioos:station:LUMCON:105:1,2009-03-15T12:00:00Z,29.1874,-90.6654,0.348,1111122 
LUMCON,ioos:station:LUMCON:105:1,2009-03-15T13:00:00Z,29.1874,-90.6654,0.394,1111122 
LUMCON,ioos:station:LUMCON:105:1,2009-03-15T14:00:00Z,29.1874,-90.6654,0.466,1111122 
LUMCON,ioos:station:LUMCON:105:1,2009-03-15T15:00:00Z,29.1874,-90.6654,0.485,1111122 
LUMCON,ioos:station:LUMCON:105:1,2009-03-15T16:00:00Z,29.1874,-90.6654,0.525,1111122 
LUMCON,ioos:station:LUMCON:105:1,2009-03-15T17:00:00Z,29.1874,-90.6654,0.544,1111122 
LUMCON,ioos:station:LUMCON:105:1,2009-03-15T18:00:00Z,29.1874,-90.6654,0.551,1111122 